GW0684 Weather Reports


time (UTC)temp
F
wind
direction
speed
knots
gust
knots
rain 1hr
in
rain 24hr
in
rain mn
in
humidity
%
barometer
mb
20260507081614 47 284 0.9 1.7 0.04 0.36 0.04 99
20260507080554 47 287 0.9 1.7 0.03 0.36 0.03 99
20260507075614 47 298 0.0 0.9 0.02 0.35 0.02 99
20260507074554 48 313 0.9 1.7 0.00 0.33 0.00 99
20260507073555 48 286 0.9 1.7 0.00 0.33 0.00 99
20260507072615 48 323 0.0 1.7 0.00 0.33 0.00 99
20260507071555 48 281 0.9 1.7 0.00 0.33 0.00 99
20260507070555 48 308 0.9 1.7 0.00 0.33 0.00 99
20260507065615 48 292 0.9 1.7 0.00 0.33 0.00 99
20260507064555 48 304 0.9 1.7 0.00 0.33 0.00 99
20260507063556 48 304 0.0 0.9 0.00 0.33 0.00 99
20260507062556 49 330 0.9 1.7 0.00 0.33 0.00 99
20260507061556 49 309 0.0 1.7 0.00 0.33 0.00 99
20260507060617 49 333 0.9 1.7 0.00 0.33 0.00 99
20260507055557 49 10 0.0 1.7 0.00 0.33 0.00 99
20260507054557 49 246 0.0 0.9 0.00 0.33 0.00 99
20260507053657 50 323 0.9 0.9 0.00 0.33 0.00 99
20260507052557 50 292 0.0 1.7 0.00 0.33 0.00 99
20260507051637 50 272 0.9 0.9 0.00 0.33 0.00 99
20260507050618 50 345 0.0 0.9 0.00 0.33 0.00 99
20260507045558 51 337 0.0 0.9 0.00 0.33 0.00 99
20260507044558 51 322 0.9 0.9 0.00 0.33 0.00 99
20260507043557 51 290 0.9 0.9 0.00 0.33 0.00 99
20260507042618 51 284 0.9 1.7 0.00 0.33 0.00 99
20260507041558 51 277 0.9 1.7 0.00 0.33 0.00 99
20260507040558 52 262 0.9 1.7 0.00 0.33 0.00 99
20260507035559 52 268 0.9 1.7 0.00 0.33 0.00 99
20260507034558 52 297 0.9 1.7 0.00 0.33 0.00 99
20260507033559 53 282 1.7 2.6 0.00 0.33 0.00 99
20260507032559 54 289 1.7 2.6 0.00 0.33 0.00 99
20260507031620 56 328 0.9 2.6 0.00 0.33 0.00 99
20260507030601 57 274 0.9 1.7 0.00 0.33 0.00 99
20260507025600 58 289 1.7 2.6 0.00 0.33 0.00 99
20260507024600 58 275 0.9 1.7 0.00 0.33 0.00 99
20260507023600 58 260 0.9 2.6 0.00 0.33 0.00 99
20260507022600 58 222 0.9 1.7 0.00 0.33 0.00 99
20260507021601 58 251 0.9 2.6 0.00 0.33 0.00 99
20260507020600 58 267 0.9 1.7 0.00 0.33 0.00 99
20260507015619 59 274 0.9 2.6 0.00 0.33 0.00 99
20260507014600 59 326 0.9 2.6 0.00 0.33 0.00 99
20260507013601 59 80 1.7 6.1 0.00 0.33 0.00 99
20260507012601 58 302 0.9 1.7 0.00 0.33 0.00 99
20260507011621 59 112 0.9 2.6 0.00 0.33 0.00 99
20260507010602 59 186 0.9 3.5 0.00 0.33 0.00 99
20260507005601 58 83 1.7 6.1 0.00 0.33 0.00 99
20260507004600 58 174 0.9 2.6 0.00 0.33 0.00 99
20260507003600 59 122 0.9 3.5 0.00 0.33 0.00 99
20260507002601 59 147 1.7 4.3 0.00 0.33 0.00 99
20260507001621 59 241 1.7 5.2 0.00 0.33 0.00 99
20260507000601 59 109 1.7 3.5 0.01 0.33 0.00 99
20260506235602 59 299 1.7 5.2 0.02 0.33 0.33 99
20260506234601 59 60 1.7 2.6 0.02 0.33 0.33 99
20260506233621 59 150 1.7 4.3 0.02 0.33 0.33 99
20260506232601 59 11 0.9 2.6 0.02 0.33 0.33 99
20260506231602 59 152 1.7 3.5 0.02 0.32 0.32 99
20260506230601 59 165 1.7 6.1 0.02 0.32 0.32 99
20260506225603 59 139 0.9 3.5 0.00 0.30 0.30 99
20260506224604 59 17 0.9 4.3 0.00 0.30 0.30 99
20260506223602 59 189 1.7 3.5 0.01 0.30 0.30 99
20260506222602 59 83 1.7 4.3 0.02 0.30 0.30 99
20260506221602 59 231 0.9 2.6 0.03 0.30 0.30 99
20260506220602 59 125 2.6 4.3 0.04 0.30 0.30 99
20260506215603 59 273 0.9 2.6 0.05 0.30 0.30 99
20260506214603 59 97 0.9 2.6 0.06 0.30 0.30 99
20260506213603 59 150 1.7 3.5 0.06 0.29 0.29 99
20260506212604 59 94 2.6 5.2 0.07 0.29 0.29 99
20260506211603 60 133 2.6 4.3 0.07 0.27 0.27 99
20260506210603 60 122 1.7 2.6 0.07 0.26 0.26 99
20260506205623 60 238 1.7 4.3 0.07 0.25 0.25 99
20260506204603 60 105 1.7 4.3 0.06 0.24 0.24 100
20260506203603 61 139 0.0 2.6 0.05 0.23 0.23 99
20260506202604 61 143 0.9 2.6 0.04 0.21 0.21 99
20260506201604 61 122 1.7 4.3 0.03 0.20 0.20 98
20260506200604 62 27 1.7 4.3 0.02 0.19 0.19 98
20260506195604 62 135 0.9 4.3 0.03 0.18 0.18 99
20260506194605 62 188 0.9 1.7 0.04 0.18 0.18 100
20260506193604 62 55 0.9 2.6 0.05 0.18 0.18 99
20260506192604 61 111 0.0 0.9 0.06 0.18 0.18 99
20260506191604 62 120 0.9 1.7 0.08 0.17 0.17 100
20260506190605 62 166 0.0 1.7 0.08 0.17 0.17 100
20260506185606 62 165 0.0 0.9 0.08 0.15 0.15 100
20260506184605 62 252 0.9 0.9 0.12 0.14 0.14 100
20260506183605 62 261 0.0 1.7 0.13 0.13 0.13 99
20260506182606 62 246 0.0 0.9 0.11 0.11 0.11 99
20260506181606 63 252 0.0 0.9 0.10 0.10 0.10 97
20260506180607 64 267 0.9 1.7 0.09 0.09 0.09 95
20260506175606 66 325 0.9 1.7 0.07 0.07 0.07 88
20260506174606 70 161 1.7 5.2 0.01 0.01 0.01 71
20260506173606 71 118 1.7 6.1 0.00 0.00 0.00 62
20260506172647 72 151 1.7 5.2 0.00 0.00 0.00 61
20260506171607 72 13 2.6 7.8 0.00 0.00 0.00 61
20260506170608 72 134 2.6 5.2 0.00 0.00 0.00 62
20260506165608 71 109 1.7 6.1 0.00 0.00 0.00 63
20260506164608 70 167 1.7 4.3 0.00 0.00 0.00 64
20260506163607 70 121 2.6 7.0 0.00 0.00 0.00 65
20260506162607 70 110 2.6 5.2 0.00 0.00 0.00 66
20260506161628 70 149 1.7 6.1 0.00 0.00 0.00 66
20260506160608 69 84 1.7 6.1 0.00 0.00 0.00 66
20260506155608 69 97 2.6 7.0 0.00 0.00 0.00 67
20260506154608 69 107 2.6 7.0 0.00 0.00 0.00 67
20260506153608 69 153 1.7 4.3 0.00 0.00 0.00 67
20260506152609 70 113 2.6 7.0 0.00 0.00 0.00 67
20260506151609 70 141 2.6 5.2 0.00 0.00 0.00 67
20260506150629 69 136 2.6 6.1 0.00 0.00 0.00 69
20260506145609 68 123 2.6 7.0 0.00 0.00 0.00 69
20260506144609 68 116 2.6 6.1 0.00 0.00 0.00 70
20260506143609 68 119 2.6 7.0 0.00 0.00 0.00 71
20260506142610 67 97 1.7 5.2 0.00 0.00 0.00 72
20260506141610 67 156 2.6 7.8 0.00 0.00 0.00 74
20260506140629 66 141 1.7 4.3 0.00 0.00 0.00 75
20260506135610 65 112 2.6 7.8 0.00 0.00 0.00 76
20260506134610 65 146 2.6 6.1 0.00 0.00 0.00 77
20260506133610 65 125 1.7 6.1 0.00 0.00 0.00 77
20260506132630 65 127 1.7 5.2 0.00 0.00 0.00 77
20260506131610 64 131 1.7 6.1 0.00 0.00 0.00 77
20260506130611 65 149 2.6 7.0 0.00 0.00 0.00 77
20260506125611 65 179 3.5 8.7 0.00 0.00 0.00 76
20260506124611 64 241 2.6 5.2 0.00 0.00 0.00 77
20260506123611 64 131 1.7 5.2 0.00 0.00 0.00 78
20260506122611 63 338 2.6 5.2 0.00 0.00 0.00 79
20260506121611 63 142 2.6 6.1 0.00 0.00 0.00 78
20260506120611 62 115 1.7 5.2 0.00 0.00 0.00 80
20260506115612 62 106 2.6 5.2 0.00 0.00 0.00 81
20260506114613 62 90 2.6 9.6 0.00 0.00 0.00 81
20260506113632 61 100 2.6 5.2 0.00 0.00 0.00 82
20260506112612 61 22 0.9 2.6 0.00 0.00 0.00 82
20260506111612 61 88 1.7 7.0 0.00 0.00 0.00 82
20260506110512 60 106 1.7 3.5 0.00 0.00 0.00 82
20260506105515 60 112 1.7 5.2 0.00 0.00 0.00 83
20260506104514 60 160 2.6 3.5 0.00 0.00 0.00 83
20260506103535 60 85 1.7 4.3 0.00 0.00 0.00 83
20260506102616 60 254 1.7 2.6 0.00 0.00 0.00 82
20260506101615 60 127 1.7 3.5 0.00 0.00 0.00 82
20260506100515 60 97 1.7 4.3 0.00 0.00 0.00 82
20260506095515 60 129 0.9 1.7 0.00 0.00 0.00 82
20260506094515 60 277 0.9 2.6 0.00 0.00 0.00 82
20260506093515 60 79 0.9 2.6 0.00 0.00 0.00 82
20260506092515 60 131 0.9 2.6 0.00 0.00 0.00 82
20260506091516 60 85 0.9 2.6 0.00 0.00 0.00 81
20260506090516 60 120 0.9 2.6 0.00 0.00 0.00 81
20260506085517 61 283 0.9 4.3 0.00 0.00 0.00 80
20260506084516 61 149 1.7 3.5 0.00 0.00 0.00 79
20260506083517 61 241 0.9 2.6 0.00 0.00 0.00 79
20260506082517 61 98 1.7 3.5 0.00 0.00 0.00 78